Orbital Elements at Epoch 2459200.5 (2020-Dec-17.0) TDB
Reference: JPL 19 (heliocentric ecliptic J2000)
Element | Value | Uncertainty (1-sigma) | Units |
e | .1443480519873649 | 5.5134e-08 | |
a | 3.049526650379254 | 2.9631e-08 | au |
q | 2.609333418913454 | 1.7842e-07 | au |
i | 1.236859863033293 | 5.8482e-06 | deg |
node | 38.59326741721689 | 0.00026355 | deg |
peri | 3.691271975382084 | 0.00026448 | deg |
M | 99.22115019663457 | 2.5144e-05 | deg |
tp | 2458664.396265022877 (2019-Jun-29.89626502) | 0.00013091 | TDB |
period | 1945.123032834086 5.33 | 2.835e-05 7.762e-08 | d yr |
n | .1850782669903776 | 2.6975e-09 | deg/d |
Q | 3.489719881845054 | 3.3908e-08 | au |
|
| | Orbit Determination Parameters
Additional Information
|